Terminal Aerodrome Forecast
Issued by NWS Des Moines, IA

Home | Current Version | Previous Version | Text Only | Print | Product List | Glossary On
Versions: 1 2 3 4 5 6 7 8 9 10 11 12 13 14 15 16 17 18 19 20 21 22 23 24 25 26 27 28 29 30 31 32 33 34 35 36 37 38 39
000
FTUS43 KDMX 221120
TAFDSM
TAF
KDSM 221120Z 2212/2312 VRB03KT 6SM BR SKC
     FM221400 24006KT P6SM SCT050
     FM230200 18004KT P6SM SKC=

USA.gov is the U.S. government's official web portal to all federal, state and local government web resources and services.